CAPE
13 12 31 22 27 13 14 19 30 42 189 78 63 87 72 70 125 80 34 42 108 95 30 0 0 74 36 25 6 0 10 0 0 0 0 0 0 0 0 0 0 0 0 0 0 0 0
6 12 21 23 32 11 2 20 104 125 132 74 54 85 60 65 87 69 89 68 84 44 12 0 0 43 29 31 0 0 5 0 0 0 0 0 0 0 0 0 0 0 0 0 0 0 0
2 36 25 13 6 16 13 1 8 114 67 33 31 66 85 150 137 92 55 3 21 40 19 9 0 84 50 14 1 0 0 0 0 0 0 0 0 0 0 0 0 0 0 0 0 0 0
2 31 15 10 13 18 12 14 10 29 95 120 27 52 43 77 34 30 57 39 0 0 0 11 3 24 41 7 0 0 0 0 0 0 0 0 0 0 0 0 0 0 0 0 0 0 0
4 22 13 16 21 16 17 14 14 24 35 40 54 52 57 21 29 12 5 5 28 18 1 1 15 19 8 0 0 0 0 0 0 0 0 0 0 0 0 0 0 0 0 0 0 0 0
9 8 11 16 18 14 7 4 7 9 8 9 9 3 3 1 0 0 66 0 22 3 18 4 0 3 0 1 0 0 0 0 0 0 0 0 0 0 0 0 0 0 0 0 0 0 0
18 4 7 19 21 33 24 8 2 4 3 17 0 0 0 0 0 2 36 6 6 0 0 3 1 4 0 0 0 1 0 0 0 0 0 0 0 0 0 0 0 0 0 0 0 0 0
6 21 0 14 15 24 34 24 0 3 0 0 0 0 0 0 0 0 1 2 1 0 0 2 3 5 2 0 2 0 0 0 0 0 0 0 0 0 0 0 0 0 0 0 0 0 0
5 10 21 0 5 5 13 12 32 4 1 1 5 4 2 0 0 0 0 0 1 0 0 1 6 3 1 4 1 0 0 0 0 0 0 0 0 0 0 0 0 0 0 0 0 0 0
4 4 18 17 16 9 10 24 32 28 21 3 13 4 7 0 0 0 0 2 2 0 0 0 0 0 4 4 1 0 0 0 0 0 0 0 0 0 0 0 0 0 0 0 0 0 0
25 9 0 3 5 12 7 14 21 22 5 1 0 0 0 0 0 3 0 0 0 0 0 0 1 0 4 0 0 0 0 0 0 0 0 0 0 0 0 0 0 0 0 0 0 0 0
24 2 1 0 0 0 1 1 6 20 5 0 0 0 0 1 0 0 0 0 0 0 0 0 1 2 1 1 0 0 0 0 0 0 0 0 0 0 0 0 0 0 0 0 0 0 0
12 2 6 0 0 0 0 1 4 4 8 0 0 0 0 0 0 0 0 0 0 0 0 0 2 1 0 0 0 0 0 0 0 0 0 1 0 0 0 0 0 0 0 0 0 0 0
7 5 3 3 0 0 0 0 0 0 0 0 0 0 0 0 0 0 0 0 0 6 1 0 0 0 0 0 0 0 0 0 0 0 0 0 0 0 0 0 0 1 0 0 0 0 0
7 6 1 3 1 0 0 0 0 0 0 0 0 0 0 0 0 0 0 0 0 0 1 0 1 0 0 0 0 1 1 0 0 0 0 0 0 0 0 0 0 0 0 0 0 0 0
1 5 6 2 0 0 0 0 0 0 0 0 0 0 0 0 0 0 0 0 0 0 0 0 0 0 0 0 0 1 0 0 0 0 0 0 0 0 0 0 0 3 0 0 0 0 0
0 2 5 2 0 0 0 0 0 0 0 0 0 0 0 0 0 0 0 0 0 0 0 0 0 0 0 0 1 0 0 0 0 0 0 0 0 0 0 0 0 1 0 0 0 0 0
0 0 1 3 0 0 0 0 0 0 0 0 0 0 0 0 0 0 0 0 0 0 0 0 0 0 0 0 0 1 0 0 0 0 0 0 0 0 0 0 0 0 0 0 0 0 0
0 0 1 0 0 0 0 0 0 0 0 0 0 0 0 0 0 0 0 0 0 0 0 0 0 0 0 0 0 0 0 0 0 0 0 0 0 0 0 0 0 0 0 0 0 0 0
0 0 0 1 2 0 0 0 0 0 0 0 0 0 0 0 0 0 0 0 0 0 0 0 0 0 0 0 0 0 0 0 0 0 0 0 0 0 0 0 0 0 0 0 0 0 0
0 0 0 0 2 1 0 0 0 0 0 0 0 0 0 0 0 0 0 0 0 0 0 0 0 0 0 0 0 0 0 0 0 0 0 0 0 0 0 0 0 0 0 0 0 0 0
0 0 0 0 0 0 0 0 0 0 0 0 0 0 0 0 0 0 0 0 0 0 0 0 0 0 0 0 0 0 0 0 0 0 0 0 0 0 0 0 0 0 0 0 0 0 0
0 0 0 0 0 0 0 0 0 0 0 0 0 0 0 0 0 0 0 0 0 0 0 0 0 0 0 0 0 0 0 0 0 0 0 0 0 0 0 0 0 0 0 0 0 0 0
0 0 0 0 0 0 0 0 0 0 0 0 0 0 0 0 0 0 0 0 0 0 0 0 0 0 0 0 0 0 0 0 0 0 0 0 0 0 0 0 0 0 0 0 0 0 0
0 0 0 0 0 0 0 0 0 0 0 0 0 0 0 0 0 0 0 0 0 0 0 0 0 0 0 0 0 0 0 0 0 0 0 0 0 0 0 0 0 0 0 0 0 0 0
0 0 0 0 0 0 0 0 0 0 0 0 0 0 0 0 0 0 0 0 0 0 0 0 0 0 0 0 0 0 0 0 0 0 0 0 0 0 0 0 0 0 0 0 0 0 0
0 0 0 0 0 0 0 0 0 0 0 0 0 0 0 0 0 0 0 0 0 0 0 0 0 0 0 0 0 0 0 0 0 0 0 0 0 0 0 0 0 0 0 0 0 0 0
2 0 0 0 0 0 0 0 0 0 0 0 0 0 0 0 0 0 0 0 0 0 0 0 0 0 0 0 0 0 0 0 0 0 0 0 0 0 0 0 0 0 0 0 0 0 0
3 2 0 0 0 0 0 0 0 0 0 0 0 0 0 0 0 0 0 0 0 0 0 0 0 0 0 0 0 0 0 0 0 0 0 0 0 0 0 0 0 0 0 0 0 0 0
CIN
-0 -0 -0 -0 -1 -0 -0 -42 -0 -0 -0 -7 -28 -6 -7 -14 -1 -15 -22 -28 -2 -0 -7 -0 -0 -5 -18 -1 -3 -0 -9 -30 -0 -0 -0 -0 -0 -0 -0 -0 -0 -0 -0 -0 -0 -0 -0
-0 -0 -0 -1 -1 -0 -1 -26 -1 -1 -3 -29 -11 -7 -8 -2 -0 -18 -12 -8 -2 -9 -9 -0 -0 -8 -14 -0 -0 -0 -3 -0 -0 -0 -0 -0 -0 -0 -0 -0 -0 -0 -0 -0 -0 -0 -0
-0 -0 -1 -0 -1 -1 -0 -0 -45 -0 -13 -10 -10 -6 -1 -0 -1 -7 -6 -0 -18 -13 -13 -13 -0 -3 -1 -6 -0 -0 -0 -0 -0 -0 -0 -0 -0 -0 -0 -0 -0 -0 -0 -0 -0 -0 -0
-0 -0 -1 -0 -0 -1 -0 -0 -0 -3 -1 -1 -5 -1 -0 -4 -23 -15 -9 -16 -0 -0 -0 -20 -5 -11 -2 -11 -0 -0 -0 -0 -0 -0 -0 -0 -0 -0 -0 -0 -0 -0 -0 -0 -0 -0 -0
-0 -1 -0 -0 -1 -1 -1 -0 -0 -0 -14 -14 -0 -2 -1 -4 -7 -16 -12 -10 -10 -3 -20 -13 -7 -4 -0 -0 -0 -4 -0 -0 -0 -0 -0 -0 -0 -0 -0 -0 -0 -0 -0 -0 -0 -0 -0
-0 -1 -1 -0 -1 -0 -0 -0 -0 -0 -0 -5 -6 -5 -3 -0 -0 -0 -18 -0 -1 -15 -8 -1 -0 -2 -0 -0 -0 -0 -0 -0 -0 -0 -0 -0 -0 -0 -0 -0 -0 -0 -0 -0 -0 -0 -0
-0 -0 -0 -0 -0 -1 -0 -1 -0 -1 -0 -1 -0 -0 -0 -0 -0 -6 -1 -2 -1 -0 -0 -0 -0 -0 -0 -0 -0 -0 -0 -0 -0 -0 -0 -0 -0 -0 -0 -0 -0 -0 -0 -0 -0 -0 -0
-0 -0 -0 -0 -0 -0 -0 -0 -0 -4 -0 -0 -0 -0 -0 -0 -0 -0 -24 -5 -0 -0 -0 -0 -0 -0 -1 -3 -1 -0 -0 -0 -0 -0 -0 -0 -0 -0 -0 -0 -0 -0 -0 -0 -0 -0 -0
-0 -0 -0 -0 -0 -0 -0 -0 -0 -0 -4 -10 -4 -2 -1 -0 -0 -0 -0 -0 -0 -0 -0 -0 -0 -0 -1 -5 -0 -0 -0 -0 -0 -0 -0 -0 -0 -0 -0 -0 -0 -0 -0 -0 -0 -0 -0
-0 -0 -0 -0 -0 -0 -0 -0 -0 -0 -0 -6 -4 -2 -2 -0 -0 -0 -0 -0 -0 -0 -0 -0 -0 -0 -0 -1 -0 -0 -0 -0 -0 -0 -0 -0 -0 -0 -0 -0 -0 -0 -0 -0 -0 -0 -0
-0 -0 -0 -0 -0 -0 -0 -0 -0 -0 -0 -0 -0 -0 -0 -0 -0 -1 -0 -0 -0 -0 -0 -0 -0 -0 -1 -0 -0 -0 -0 -0 -0 -0 -0 -0 -0 -0 -0 -0 -0 -0 -0 -0 -0 -1 -0
-0 -0 -0 -0 -0 -0 -0 -0 -1 -0 -2 -0 -0 -0 -0 -4 -0 -0 -0 -0 -0 -0 -0 -0 -0 -0 -0 -0 -0 -0 -0 -0 -0 -0 -0 -0 -0 -0 -0 -0 -0 -0 -0 -0 -0 -0 -0
-1 -1 -0 -0 -0 -0 -0 -0 -0 -0 -1 -0 -0 -0 -0 -0 -0 -0 -0 -0 -0 -0 -0 -0 -0 -0 -0 -0 -1 -1 -0 -0 -0 -0 -0 -0 -0 -0 -0 -1 -0 -0 -0 -0 -0 -0 -0
-1 -0 -0 -0 -0 -0 -0 -0 -0 -0 -0 -0 -0 -0 -0 -0 -0 -0 -0 -0 -0 -0 -0 -0 -0 -0 -0 -0 -0 -0 -0 -0 -0 -0 -0 -0 -0 -0 -0 -0 -4 -1 -0 -0 -0 -0 -0
-0 -2 -0 -0 -0 -0 -0 -0 -0 -0 -0 -0 -0 -0 -0 -0 -0 -0 -0 -0 -0 -0 -4 -0 -3 -0 -0 -0 -0 -0 -1 -0 -0 -0 -0 -0 -0 -0 -0 -0 -1 -0 -0 -0 -0 -0 -0
-0 -0 -0 -0 -0 -0 -0 -0 -0 -0 -0 -0 -0 -0 -0 -0 -0 -0 -0 -0 -0 -0 -0 -0 -0 -0 -0 -0 -0 -3 -1 -0 -0 -0 -0 -0 -0 -0 -0 -0 -0 -2 -0 -3 -0 -0 -0
-0 -0 -0 -0 -0 -0 -0 -0 -0 -0 -0 -0 -0 -0 -0 -0 -0 -0 -0 -0 -0 -0 -0 -0 -0 -0 -0 -0 -1 -0 -0 -0 -0 -0 -0 -0 -1 -0 -0 -0 -0 -0 -0 -2 -0 -0 -0
-0 -0 -0 -0 -0 -0 -0 -0 -0 -0 -0 -0 -0 -0 -0 -0 -0 -0 -0 -0 -0 -0 -0 -0 -0 -0 -0 -0 -0 -1 -2 -0 -0 -0 -0 -0 -0 -0 -0 -0 -0 -0 -0 -0 -0 -0 -0
-0 -0 -0 -0 -0 -0 -0 -0 -0 -0 -0 -0 -0 -0 -0 -0 -0 -0 -0 -0 -0 -0 -0 -0 -0 -0 -0 -0 -0 -0 -0 -0 -0 -0 -0 -0 -0 -0 -0 -0 -0 -0 -0 -0 -0 -0 -0
-0 -0 -0 -0 -0 -0 -0 -0 -0 -0 -0 -0 -0 -0 -0 -0 -0 -0 -0 -0 -0 -0 -0 -0 -0 -0 -0 -0 -0 -0 -0 -0 -0 -0 -0 -0 -0 -0 -0 -0 -0 -0 -0 -0 -0 -0 -0
-0 -0 -0 -0 -0 -0 -0 -0 -0 -0 -0 -0 -0 -0 -0 -0 -0 -0 -0 -0 -0 -0 -0 -0 -0 -0 -0 -0 -0 -0 -0 -0 -0 -0 -0 -0 -0 -0 -0 -0 -0 -0 -0 -0 -0 -0 -0
-0 -0 -0 -0 -0 -0 -0 -0 -0 -0 -0 -0 -0 -0 -0 -0 -0 -0 -0 -0 -0 -0 -0 -0 -0 -0 -0 -0 -0 -0 -0 -0 -0 -0 -0 -0 -0 -0 -0 -0 -0 -0 -0 -0 -0 -0 -0
-0 -0 -0 -0 -0 -0 -0 -0 -0 -0 -0 -0 -0 -0 -0 -0 -0 -0 -0 -0 -0 -0 -0 -0 -0 -0 -0 -0 -0 -0 -0 -0 -0 -0 -0 -0 -0 -0 -0 -0 -0 -0 -0 -0 -0 -0 -0
-0 -0 -0 -0 -0 -0 -0 -0 -0 -0 -0 -0 -0 -0 -0 -0 -0 -0 -0 -0 -0 -0 -0 -0 -0 -0 -0 -0 -0 -0 -0 -0 -0 -0 -0 -0 -0 -0 -0 -0 -0 -0 -0 -0 -0 -0 -0
-0 -0 -0 -0 -0 -0 -0 -0 -0 -0 -0 -0 -0 -0 -0 -0 -0 -0 -0 -0 -0 -0 -0 -0 -0 -0 -0 -0 -0 -0 -0 -0 -0 -0 -0 -0 -0 -0 -0 -0 -0 -0 -0 -0 -0 -0 -0
-0 -0 -0 -0 -0 -0 -0 -0 -0 -0 -0 -0 -0 -0 -0 -0 -0 -0 -0 -0 -0 -0 -0 -0 -0 -0 -0 -0 -0 -0 -0 -0 -0 -0 -0 -0 -0 -0 -0 -0 -0 -0 -0 -0 -0 -0 -0
-0 -0 -0 -0 -0 -0 -0 -0 -0 -0 -0 -0 -0 -0 -0 -0 -0 -0 -0 -0 -0 -0 -0 -0 -0 -0 -0 -0 -0 -0 -0 -0 -0 -0 -0 -0 -0 -0 -0 -0 -0 -0 -0 -0 -0 -0 -0
-0 -0 -0 -0 -0 -0 -0 -0 -0 -0 -0 -0 -0 -0 -0 -0 -0 -0 -0 -0 -0 -0 -0 -0 -0 -0 -0 -0 -0 -0 -0 -0 -0 -0 -0 -0 -0 -0 -0 -0 -0 -0 -0 -0 -0 -0 -0
-0 -0 -0 -0 -0 -0 -0 -0 -0 -0 -0 -0 -0 -0 -0 -0 -0 -0 -0 -0 -0 -0 -0 -0 -0 -0 -0 -0 -0 -0 -0 -0 -0 -0 -0 -0 -0 -0 -0 -0 -0 -0 -0 -0 -0 -0 -0
Wind_Speed
43 44 44 44 44 46 47 50 32 9 12 9 11 13 13 13 13 14 15 15 12 11 14 16 16 16 19 26 24 15 17 12 15 18 18 16 16 17 17 15 15 18 16 17 17 19 22
41 42 44 42 44 45 50 48 43 32 21 17 15 14 14 14 12 12 12 12 8 7 12 14 17 17 22 29 21 16 18 15 15 17 17 20 19 18 16 16 19 18 18 20 20 22 25
40 40 40 40 43 44 44 48 44 32 26 19 16 16 17 16 11 10 10 9 9 9 12 13 16 16 23 24 19 13 14 18 15 16 17 18 17 19 14 18 17 18 21 21 22 22 24
40 39 39 40 43 43 43 43 44 40 28 20 16 16 17 10 11 12 14 10 9 10 11 13 14 14 20 17 17 16 13 11 13 12 12 15 14 14 17 14 17 21 22 25 21 22 22
39 36 34 36 40 42 42 42 41 40 35 26 22 15 15 13 11 8 11 11 11 11 11 14 14 13 17 17 15 16 11 12 10 11 12 13 15 16 15 19 21 22 25 25 25 22 25
37 35 33 35 37 39 39 40 38 37 34 30 24 17 14 13 11 10 13 7 7 7 11 6 13 13 14 22 11 13 10 5 12 11 12 15 16 18 19 21 25 24 24 25 27 22 24
37 36 32 33 36 38 40 39 38 32 29 25 22 22 14 11 9 9 12 11 5 8 4 7 13 6 10 16 17 11 11 9 9 14 16 16 18 20 18 19 20 21 22 24 26 24 29
36 33 31 30 30 32 33 34 35 31 25 23 21 21 8 15 11 11 11 16 13 15 5 0 3 7 9 15 10 12 17 13 12 11 10 14 16 15 14 16 18 20 23 25 26 25 28
32 31 27 27 27 28 26 25 27 28 24 20 16 15 15 17 18 13 15 14 14 15 11 7 9 14 14 13 14 16 18 15 13 12 14 16 14 12 14 17 20 20 23 25 26 28 28
30 30 28 25 23 25 24 22 21 23 23 24 21 18 22 23 19 20 20 17 15 13 21 13 13 13 15 18 12 16 14 13 15 13 10 13 11 12 14 17 17 20 18 20 24 26 26
30 30 31 26 23 24 27 23 21 20 20 23 28 27 26 22 31 26 26 18 14 14 23 15 15 18 17 13 15 15 16 17 12 10 12 13 10 12 14 16 14 17 18 20 23 23 26
29 30 29 28 21 22 23 24 21 19 19 19 24 27 26 28 25 24 18 14 14 24 22 19 18 19 20 16 17 19 15 12 10 8 8 10 12 13 15 13 13 17 18 18 17 20 24
28 28 27 25 24 19 20 22 23 21 19 18 20 22 23 21 26 21 17 16 25 29 20 19 17 18 18 19 16 17 20 17 14 9 12 10 10 10 11 10 13 15 16 18 21 21 22
25 25 25 22 21 19 19 17 18 21 21 21 22 21 18 18 21 20 17 23 29 21 22 22 23 21 20 18 17 19 22 18 17 16 8 10 11 10 8 13 13 14 15 17 19 20 21
23 24 23 20 18 18 17 18 18 19 20 25 29 25 23 20 20 21 23 25 25 23 24 27 27 18 18 15 17 17 15 15 15 15 10 8 10 12 9 12 10 12 14 14 15 14 19
24 21 21 19 15 15 15 16 16 14 16 24 23 25 23 22 24 25 29 32 27 25 25 20 20 19 21 19 19 19 18 16 16 16 15 12 9 8 9 15 19 17 15 17 16 16 16
24 21 19 17 12 11 12 12 13 12 15 21 20 24 19 23 23 24 25 27 27 20 18 18 20 20 19 18 17 15 14 15 14 14 15 16 14 16 17 20 20 18 17 16 16 16 15
21 20 17 16 13 9 9 10 9 10 14 19 20 27 19 21 24 23 25 22 21 22 20 20 17 17 20 20 19 19 19 17 18 18 17 15 16 19 18 16 17 18 16 17 16 15 14
19 26 13 11 9 10 7 8 8 5 11 16 22 24 20 19 26 27 27 25 22 21 20 20 21 19 19 21 21 20 19 17 18 17 16 14 18 16 17 16 16 15 16 16 14 10 12
28 16 18 6 4 5 6 7 9 4 9 17 18 22 19 21 21 22 23 22 24 20 21 20 22 20 21 22 18 22 20 18 18 16 16 15 16 16 16 15 16 14 14 13 11 10 10
29 29 25 20 7 5 7 8 9 7 3 18 18 21 20 20 19 20 20 20 21 20 19 18 19 19 19 20 20 18 17 18 17 16 15 14 14 14 15 17 17 17 17 15 15 15 13
29 30 31 26 21 16 13 13 13 11 3 17 19 18 18 20 18 15 17 17 17 18 16 15 16 15 13 14 13 14 14 15 14 16 14 14 12 11 12 13 13 14 16 17 19 17 17
28 28 30 30 26 21 20 20 19 18 2 17 14 16 17 16 15 14 15 15 14 13 15 14 12 11 12 11 10 11 13 14 14 14 14 13 11 9 10 11 13 12 14 16 15 13 14
28 28 28 29 29 26 23 22 24 22 20 14 13 13 13 16 15 14 15 14 13 13 13 12 11 11 12 9 10 11 12 14 15 16 15 13 12 10 9 9 10 11 11 10 8 10 10
27 28 27 28 29 28 25 24 23 24 22 17 12 12 11 12 12 13 13 12 12 13 12 11 11 11 9 8 9 10 12 12 13 14 14 13 12 9 10 7 10 8 11 9 7 5 7
25 26 27 27 27 28 28 25 24 24 24 17 19 10 12 12 12 12 11 11 11 11 11 11 11 10 9 9 11 12 13 13 13 13 12 12 12 9 9 7 9 9 12 13 13 2 13
24 25 24 26 26 27 27 27 26 24 25 22 20 21 10 16 14 12 13 12 12 11 8 9 10 10 10 11 10 11 11 12 11 10 11 10 9 10 9 5 6 5 11 12 10 9 11
24 24 24 24 25 26 26 26 26 26 25 22 19 22 20 23 23 12 13 13 20 9 8 12 7 10 10 10 9 9 9 9 8 7 6 6 7 6 7 4 3 10 12 8 11 11 10
24 23 23 23 23 25 26 26 25 25 26 24 18 18 20 15 17 19 19 18 13 14 21 15 9 12 11 8 7 7 8 6 6 4 5 4 6 4 3 1 10 3 7 5 11 13 11
Wind_Direction
25 25 25 25 23 24 25 13 34 75 113 45 28 6 1 352 336 308 289 281 284 278 275 280 277 263 243 238 244 269 247 254 256 253 250 249 251 261 263 267 271 275 281 288 296 298 298
29 30 28 29 29 30 30 31 11 37 70 76 77 31 19 12 339 317 282 270 295 294 273 277 271 254 239 233 251 266 250 248 253 252 252 253 257 263 266 268 270 279 283 287 293 296 297
33 34 34 36 33 35 37 37 18 8 40 50 34 34 49 28 322 303 273 280 296 288 271 270 263 253 236 237 248 253 251 247 251 256 252 264 261 261 262 268 275 280 283 287 291 298 299
36 38 39 39 38 40 42 44 43 26 27 27 7 21 28 314 229 232 230 264 285 280 270 258 254 246 230 241 240 246 252 250 256 263 261 266 271 265 268 276 278 277 284 282 292 299 304
39 42 45 43 42 44 46 47 49 50 41 28 24 9 8 5 345 282 255 256 281 269 254 242 240 238 227 228 222 236 246 247 248 254 262 269 270 267 269 267 271 277 280 284 291 300 301
43 46 50 48 47 47 50 51 54 53 57 60 23 8 360 356 338 302 260 30 345 270 243 262 236 231 224 213 220 231 232 227 246 245 259 262 266 264 264 265 270 275 281 287 290 298 301
45 48 52 52 52 51 51 52 54 60 65 77 94 47 346 330 320 354 23 67 250 233 273 248 218 220 199 201 220 210 226 245 241 250 251 259 258 259 265 275 281 283 287 290 294 303 303
46 52 55 54 54 53 54 55 56 60 69 79 96 103 149 158 195 207 204 194 204 197 176 306 164 173 204 218 201 222 224 250 243 247 256 259 260 275 281 284 288 289 290 293 299 306 307
49 52 56 56 55 53 53 53 56 63 71 83 103 133 130 148 161 172 168 180 192 189 184 190 200 195 209 210 221 227 240 238 245 251 260 265 273 281 285 286 285 289 291 298 301 308 307
50 51 55 58 56 52 51 52 57 67 74 79 90 115 126 131 150 162 166 177 182 192 164 174 192 200 204 203 224 229 242 243 253 256 264 276 283 286 288 289 293 289 311 309 307 310 306
51 53 55 59 58 54 53 56 61 68 79 86 88 101 119 124 129 139 152 169 184 191 157 178 184 186 190 211 199 216 219 221 243 251 268 275 277 284 291 296 308 308 316 311 312 314 315
54 55 58 59 60 56 55 57 63 71 83 93 99 103 119 119 130 142 166 183 186 155 149 166 176 178 178 192 197 201 216 234 248 273 306 287 291 295 302 312 315 319 319 319 327 325 315
54 57 58 60 60 56 55 58 62 70 84 98 108 113 122 129 128 147 164 165 137 132 162 165 176 176 175 177 188 201 199 210 238 261 268 290 301 316 312 322 324 323 326 315 316 320 319
56 58 60 61 60 57 56 57 64 71 80 98 108 115 126 137 138 140 147 140 126 140 144 159 157 165 167 178 180 183 183 198 209 222 262 277 280 292 323 304 325 331 331 322 320 324 331
57 58 62 62 60 57 55 58 64 74 89 98 100 106 108 123 134 136 128 126 134 142 146 146 149 160 167 183 183 188 197 206 212 217 261 295 294 274 338 330 4 352 344 347 345 344 331
56 61 62 65 60 56 55 55 61 76 100 107 106 105 101 118 125 122 113 117 127 133 139 151 152 162 159 165 170 175 182 194 197 209 216 247 320 46 22 259 221 234 251 226 234 221 214
55 61 64 65 59 46 47 49 57 71 104 113 109 102 107 116 122 116 113 118 124 138 146 143 142 150 156 164 168 181 193 197 212 211 210 206 202 197 199 184 171 203 219 199 215 208 213
58 61 67 68 65 44 26 32 44 70 100 112 105 99 115 126 113 113 113 122 131 130 134 137 146 145 148 151 151 155 159 167 174 173 178 188 192 172 169 213 211 199 173 190 204 216 183
61 46 71 73 68 59 20 9 22 61 102 112 104 105 115 128 109 109 116 118 123 127 130 133 135 140 147 144 142 148 154 167 170 174 182 190 168 178 171 168 179 174 180 175 175 157 183
34 321 351 77 59 48 27 355 344 357 111 114 114 107 112 114 118 118 116 117 120 129 126 130 132 137 138 131 144 140 145 155 164 173 178 186 188 181 191 206 222 190 176 156 150 155 168
21 28 336 320 298 313 330 336 337 332 146 111 110 110 116 116 118 118 122 124 121 125 128 135 129 134 138 134 136 141 150 150 159 162 168 181 187 193 211 222 218 214 204 181 172 181 182
12 10 6 336 319 307 309 319 326 327 156 116 113 119 121 116 121 128 124 127 127 128 134 135 138 143 148 150 160 162 171 169 174 157 174 158 180 211 216 199 181 203 202 198 200 199 209
12 357 360 357 337 319 315 321 323 327 133 112 128 130 125 125 128 130 131 135 139 145 138 144 155 163 160 168 184 196 197 198 191 180 167 174 184 200 183 206 241 220 199 191 193 189 198
5 355 347 353 354 335 323 320 330 328 342 113 124 144 143 122 127 132 133 136 143 146 149 154 156 157 156 194 207 183 188 192 194 188 186 189 170 170 191 221 140 136 96 88 155 191 192
12 353 346 345 347 350 333 330 325 329 320 52 118 150 164 153 147 136 140 146 153 144 147 154 156 155 179 192 168 159 148 150 153 152 162 156 159 143 126 147 224 204 80 86 120 177 182
4 358 345 339 342 344 345 334 333 331 326 6 1 98 188 198 162 168 171 163 163 154 141 139 138 139 145 141 130 115 115 111 111 112 139 143 146 139 148 145 131 117 67 59 51 100 47
352 354 350 343 336 340 343 344 343 335 335 342 345 338 36 214 196 170 188 204 190 188 143 116 116 129 122 123 125 124 119 101 120 130 118 120 147 174 173 157 188 57 52 52 45 46 51
339 342 341 338 332 331 336 342 343 346 339 352 356 343 340 286 258 0 331 200 300 177 162 38 65 72 84 111 126 126 132 126 147 147 114 118 114 122 109 141 176 49 32 32 21 26 19
331 334 332 331 331 325 326 330 338 342 340 346 9 5 348 354 343 336 332 329 341 343 318 349 23 22 26 148 144 144 180 160 176 191 99 153 160 51 143 78 359 4 340 346 0 356 353